[[{"header":{"parameterUnit":"m.s-1","parameterCategory":1,"la1":30.2991,"la2":30.254,"lo1":-89.0895,"lo2":-89.0444,"dy":0.0017,"dx":0.0017,"nx":28,"ny":28,"refTime":"2025-11-17T09:00:00:Z","depth":0,"parameterNumber":2,"parameterNumberName":"U-component_of_WINDS"},"data":[0,0,0,0,0,0,0,0,0,0,0,0,0,0,0,0,0,0,0,0,0,0,0,0,0,0,0,0,0,0,0,0,0,0,0,0,0,0,0,0,0,0,0,0,0,0,0,0,0,0,0,0,0,0,0,0,0,0,-0.093,-0.0931,0,-0.0938,-0.0938,-0.0938,-0.094,-0.094,-0.0939,-0.0939,-0.0948,-0.0949,-0.0949,0,0,0,0,0,0,0,0,0,0,0,0,0,-0.0919,-0.0919,-0.093,-0.0931,-0.0931,-0.0938,-0.0938,-0.0938,-0.094,-0.094,-0.0939,-0.0939,-0.0948,-0.0949,-0.0949,0,0,0,0,0,0,0,0,0,0,0,0,0,-0.0925,-0.0919,-0.093,-0.0932,-0.0932,-0.0938,-0.0938,-0.0938,-0.094,-0.094,-0.0939,-0.0939,-0.0948,-0.0949,-0.0949,-0.0954,0,0,-0.095,-0.0951,0,0,0,0,0,0,0,0,-0.0924,-0.0925,-0.0932,-0.0932,-0.0932,-0.0938,-0.0937,-0.0943,-0.094,-0.0937,-0.0939,-0.0939,-0.0945,-0.0946,-0.0947,-0.0954,-0.0955,-0.095,-0.0951,-0.0951,-0.0951,0,0,0,0,0,0,0,-0.0924,-0.0925,-0.0933,-0.0932,-0.0932,-0.0933,-0.0934,-0.0938,-0.0941,-0.0937,-0.0937,-0.0938,-0.0945,-0.0947,-0.0948,-0.0955,-0.095,-0.0951,-0.0951,-0.0951,-0.0966,-0.0966,0,0,0,0,0,0,-0.0923,-0.0925,-0.0933,-0.0934,-0.0928,-0.0933,-0.0934,-0.0936,-0.0941,-0.0942,-0.0938,-0.0938,-0.0946,-0.0947,-0.0948,-0.0954,-0.0951,-0.0951,-0.0952,-0.0966,-0.0966,-0.0966,0,0,0,0,0,0,-0.0923,-0.0924,-0.0933,-0.0929,-0.093,-0.0934,-0.0936,-0.0936,-0.0938,-0.0942,-0.0943,-0.0939,-0.0946,-0.0947,-0.0952,-0.0954,-0.0952,-0.0952,-0.0966,-0.0966,-0.0966,-0.0966,0,0,0,0,0,0,-0.0922,-0.0924,-0.0925,-0.0929,-0.0931,-0.0937,-0.0936,-0.0937,-0.0939,-0.0939,-0.0943,-0.0944,-0.0946,-0.0952,-0.0953,-0.0955,-0.0952,-0.0966,-0.0966,-0.0966,-0.0966,-0.0966,-0.0966,0,0,0,0,0,-0.0922,-0.0925,-0.0925,-0.0926,-0.0932,-0.0937,-0.0938,-0.094,-0.0939,-0.0941,-0.0943,-0.0944,-0.0954,-0.0952,-0.0953,-0.0956,-0.0965,-0.0966,-0.0966,-0.0966,-0.0966,-0.0966,0,0,0,0,0,0,-0.0922,-0.0926,-0.0926,-0.093,-0.0933,-0.0937,-0.0939,-0.094,-0.0943,-0.0943,-0.0946,-0.0947,-0.0952,-0.0954,-0.0952,-0.0961,-0.096,-0.096,-0.0959,-0.0959,-0.096,-0.0959,-0.0953,0,0,0,0,0,-0.0922,-0.0925,-0.0928,-0.0932,-0.0933,-0.0936,-0.0938,-0.0939,-0.0943,-0.0944,-0.0947,-0.095,-0.0954,-0.0957,-0.0961,-0.0966,-0.0967,-0.0968,-0.0969,-0.0969,-0.0969,-0.0973,-0.0973,-0.0967,-0.0967,-0.0967,0,0,-0.0923,-0.0926,-0.0927,-0.0932,-0.0934,-0.0938,-0.0937,-0.0941,-0.0943,-0.0945,-0.0949,-0.0952,-0.0956,-0.0961,-0.0964,-0.0963,-0.0971,-0.0969,-0.0969,-0.097,-0.0973,-0.0973,-0.0974,-0.0967,-0.0967,-0.0967,0,0,-0.0927,-0.0929,-0.0932,-0.0934,-0.0938,-0.0939,-0.094,-0.0944,-0.0945,-0.095,-0.0951,-0.0955,-0.0961,-0.0964,-0.0967,-0.0971,-0.0972,-0.0972,-0.0974,-0.0977,-0.0978,-0.0978,-0.098,-0.0981,-0.0973,-0.0973,-0.0973,0,-0.0928,-0.0932,-0.0934,-0.0937,-0.0939,-0.094,-0.0944,-0.0946,-0.0951,-0.0952,-0.0952,-0.096,-0.0963,-0.0969,-0.097,-0.0972,-0.0973,-0.0972,-0.0977,-0.0978,-0.0978,-0.098,-0.0981,-0.0973,-0.0973,-0.0973,-0.0973,0,-0.0934,-0.0937,-0.0939,-0.0943,-0.0945,-0.0949,-0.0951,-0.0953,-0.0954,-0.0956,-0.0961,-0.0965,-0.0969,-0.0971,-0.0972,-0.0977,-0.0977,-0.0977,-0.0976,-0.0979,-0.0981,-0.0981,-0.0973,-0.0973,-0.0973,-0.0973,0,0,-0.0937,-0.0942,-0.0943,-0.0945,-0.0949,-0.0951,-0.0955,-0.0959,-0.0961,-0.0964,-0.0968,-0.0973,-0.0973,-0.0976,-0.0977,-0.098,-0.0984,-0.098,-0.098,-0.0981,-0.099,-0.099,-0.0991,-0.0984,-0.0984,-0.0985,-0.099,0,-0.0942,-0.0948,-0.0949,-0.0954,-0.0958,-0.0958,-0.0962,-0.0965,-0.0967,-0.097,-0.0972,-0.0976,-0.0976,-0.0977,-0.098,-0.0983,-0.0986,-0.0982,-0.0988,-0.0988,-0.0987,-0.0992,-0.0992,-0.0997,-0.0991,-0.0991,-0.0991,0,-0.0948,-0.095,-0.0956,-0.0959,-0.0961,-0.0964,-0.0968,-0.097,-0.0974,-0.0975,-0.0978,-0.0979,-0.0984,-0.0982,-0.0988,-0.0986,-0.0989,-0.099,-0.0991,-0.0991,-0.099,-0.0993,-0.0999,-0.1,-0.0992,-0.0992,-0.0992,0,-0.095,-0.0955,-0.096,-0.0961,-0.0965,-0.0967,-0.0969,-0.0972,-0.0975,-0.0978,-0.098,-0.0984,-0.0986,-0.099,-0.0992,-0.0991,-0.0998,-0.0997,-0.1,-0.1,-0.1002,-0.1002,-0.1008,-0.1003,-0.1003,-0.1003,-0.1003,0,-0.0955,-0.0959,-0.0961,-0.0963,-0.0967,-0.0969,-0.0973,-0.0975,-0.0978,-0.0981,-0.0982,-0.0986,-0.0988,-0.0992,-0.0994,-0.0999,-0.1,-0.1002,-0.1002,-0.1002,-0.1002,-0.1004,-0.1004,-0.1003,-0.1003,-0.1003,-0.1003,0,-0.0959,-0.096,-0.0965,-0.0968,-0.0969,-0.0972,-0.0975,-0.0978,-0.098,-0.0984,-0.0985,-0.0988,-0.0992,-0.0995,-0.1001,-0.1002,-0.1008,-0.1008,-0.1007,-0.1007,-0.101,-0.101,-0.1018,-0.1019,-0.1013,-0.1013,-0.1013,0,-0.0962,-0.0965,-0.0968,-0.097,-0.0972,-0.0975,-0.0977,-0.0979,-0.0982,-0.0986,-0.0988,-0.0992,-0.0996,-0.1003,-0.1006,-0.1011,-0.1011,-0.1014,-0.1012,-0.1012,-0.1012,-0.1012,-0.1012,-0.1014,-0.1014,-0.1014,-0.1014,0,-0.0968,-0.0968,-0.0971,-0.0975,-0.0977,-0.098,-0.0983,-0.0985,-0.0987,-0.099,-0.0994,-0.0997,-0.1002,-0.1007,-0.1011,-0.1014,-0.1015,-0.1015,-0.1016,-0.1016,-0.1015,-0.1016,-0.1008,-0.1015,-0.1015,-0.1015,-0.1015,-0.1015,-0.0971,-0.0974,-0.0977,-0.098,-0.0982,-0.0985,-0.0988,-0.099,-0.0993,-0.0997,-0.0998,-0.1003,-0.1007,-0.1013,-0.1015,-0.1019,-0.1019,-0.102,-0.1021,-0.1021,-0.1021,-0.1014,-0.102,-0.102,-0.102,-0.102,-0.102,0,-0.0977,-0.0979,-0.0982,-0.0986,-0.0989,-0.0989,-0.0992,-0.0994,-0.0998,-0.1001,-0.1004,-0.101,-0.1014,-0.1017,-0.1022,-0.1024,-0.1025,-0.1025,-0.1026,-0.1026,-0.1021,-0.102,-0.1025,-0.1025,-0.1025,-0.1025,-0.1025,-0.1025,-0.0981,-0.0985,-0.0986,-0.0991,-0.0993,-0.0997,-0.0999,-0.1002,-0.1004,-0.101,-0.1013,-0.1015,-0.1018,-0.1023,-0.1027,-0.1028,-0.103,-0.1031,-0.1032,-0.1027,-0.1027,-0.1026,-0.1025,-0.1031,-0.1031,-0.1036,-0.1036,-0.1036]},{"header":{"parameterUnit":"m.s-1","parameterCategory":1,"la1":30.2991,"la2":30.254,"lo1":-89.0895,"lo2":-89.0444,"dy":0.0017,"dx":0.0017,"nx":28,"ny":28,"refTime":"2025-11-17T09:00:00:Z","depth":0,"parameterNumber":3,"parameterNumberName":"V-component_of_WINDS"},"data":[0,0,0,0,0,0,0,0,0,0,0,0,0,0,0,0,0,0,0,0,0,0,0,0,0,0,0,0,0,0,0,0,0,0,0,0,0,0,0,0,0,0,0,0,0,0,0,0,0,0,0,0,0,0,0,0,0,0,1.4384,1.4384,0,1.4388,1.4388,1.4388,1.4397,1.4397,1.4397,1.4397,1.4401,1.4401,1.4401,0,0,0,0,0,0,0,0,0,0,0,0,0,1.4386,1.4386,1.4384,1.4384,1.4384,1.4388,1.4388,1.4388,1.4397,1.4397,1.4397,1.4397,1.4401,1.4401,1.4401,0,0,0,0,0,0,0,0,0,0,0,0,0,1.4387,1.4386,1.4384,1.4389,1.4389,1.4388,1.4388,1.4388,1.4397,1.4397,1.4397,1.4397,1.4402,1.4401,1.4401,1.4395,0,0,1.4401,1.4401,0,0,0,0,0,0,0,0,1.4387,1.4387,1.4388,1.4388,1.4389,1.4392,1.439,1.439,1.4397,1.4394,1.4397,1.4398,1.4398,1.4398,1.4398,1.4395,1.4396,1.4401,1.4401,1.4401,1.4401,0,0,0,0,0,0,0,1.4387,1.4387,1.4385,1.4388,1.4389,1.4392,1.4392,1.439,1.4394,1.4394,1.4395,1.4395,1.4398,1.4398,1.4399,1.4396,1.4401,1.4401,1.4401,1.4401,1.439,1.439,0,0,0,0,0,0,1.4386,1.4387,1.4385,1.4385,1.4389,1.4391,1.4392,1.4391,1.4394,1.4395,1.4395,1.4395,1.4398,1.4399,1.4399,1.4393,1.4401,1.4401,1.4401,1.439,1.439,1.439,0,0,0,0,0,0,1.4386,1.4386,1.4385,1.4386,1.4386,1.4391,1.439,1.4391,1.4391,1.4395,1.4396,1.4394,1.4399,1.4399,1.4396,1.4393,1.4401,1.4401,1.4391,1.439,1.439,1.438,0,0,0,0,0,0,1.4386,1.4386,1.4383,1.4386,1.4386,1.4382,1.4389,1.4391,1.439,1.4391,1.4394,1.4395,1.4399,1.4397,1.4396,1.4393,1.4401,1.4391,1.439,1.439,1.4381,1.438,1.4379,0,0,0,0,0,1.4386,1.438,1.4383,1.4382,1.4383,1.4382,1.4382,1.4386,1.439,1.4388,1.4391,1.4395,1.4394,1.4396,1.4396,1.4393,1.4391,1.439,1.439,1.4382,1.438,1.4379,0,0,0,0,0,0,1.4375,1.438,1.4383,1.4378,1.4379,1.4383,1.438,1.4384,1.4385,1.4385,1.4391,1.4392,1.4389,1.4391,1.4393,1.4388,1.4393,1.4393,1.4387,1.4385,1.4384,1.4384,1.4401,0,0,0,0,0,1.4372,1.4371,1.4375,1.437,1.4371,1.4375,1.4375,1.4378,1.438,1.4381,1.4384,1.4386,1.4386,1.4386,1.4386,1.4382,1.4383,1.438,1.4379,1.4378,1.4377,1.4376,1.4375,1.4388,1.4388,1.4388,0,0,1.4366,1.4369,1.4367,1.4368,1.4369,1.4368,1.4376,1.4374,1.4373,1.4381,1.4379,1.4381,1.4384,1.4381,1.438,1.4382,1.4374,1.4377,1.4376,1.4376,1.4376,1.4374,1.4373,1.4388,1.4388,1.4388,0,0,1.4354,1.4355,1.4352,1.4354,1.4356,1.436,1.4359,1.4363,1.4365,1.4363,1.4369,1.4369,1.4369,1.4371,1.4372,1.4364,1.4368,1.4364,1.4357,1.4357,1.4356,1.4355,1.4353,1.4352,1.4363,1.4363,1.4363,0,1.4346,1.4344,1.4349,1.4348,1.4348,1.4356,1.4353,1.4354,1.4357,1.4358,1.4361,1.4362,1.4364,1.4363,1.4361,1.4361,1.4361,1.4363,1.4355,1.4355,1.4354,1.4352,1.4351,1.4362,1.4363,1.4363,1.4363,0,1.4334,1.4333,1.433,1.4333,1.4333,1.4331,1.4337,1.4337,1.4341,1.4345,1.4344,1.4347,1.4349,1.4349,1.4353,1.4348,1.435,1.4354,1.4359,1.4352,1.435,1.4349,1.4362,1.4362,1.4362,1.4362,0,0,1.4314,1.4321,1.432,1.4322,1.4327,1.4326,1.4325,1.4327,1.4328,1.433,1.433,1.433,1.4335,1.4336,1.434,1.434,1.4334,1.4344,1.4344,1.4343,1.4331,1.4328,1.4327,1.4338,1.4338,1.4337,1.4331,0,1.4303,1.4301,1.4307,1.4303,1.4303,1.4311,1.4311,1.4314,1.4318,1.4319,1.4323,1.4324,1.4329,1.433,1.433,1.4335,1.4332,1.4335,1.4338,1.4338,1.4337,1.4326,1.4322,1.4316,1.4331,1.4331,1.433,0,1.429,1.4292,1.4288,1.4295,1.4295,1.4294,1.4298,1.4298,1.4303,1.4306,1.4308,1.4314,1.4314,1.432,1.4321,1.4323,1.4325,1.4328,1.4328,1.4328,1.4334,1.4326,1.4315,1.4314,1.4329,1.4329,1.4329,0,1.4276,1.4278,1.4277,1.4278,1.4286,1.4285,1.4288,1.4293,1.4294,1.4298,1.4299,1.4302,1.4304,1.4307,1.4314,1.4317,1.4315,1.4321,1.4318,1.4318,1.4317,1.4317,1.4305,1.4318,1.4318,1.4318,1.4318,0,1.4263,1.4261,1.4271,1.427,1.4269,1.4276,1.4275,1.4279,1.4283,1.4284,1.4292,1.4292,1.4301,1.4304,1.4309,1.431,1.4311,1.4314,1.4315,1.4313,1.4313,1.4314,1.4315,1.4318,1.4318,1.4318,1.4318,0,1.4247,1.4254,1.4253,1.4261,1.4263,1.4261,1.4268,1.4268,1.4273,1.4274,1.4275,1.4283,1.4286,1.4294,1.4299,1.4303,1.4303,1.4305,1.4301,1.4302,1.4299,1.4299,1.4288,1.4287,1.43,1.43,1.43,0,1.4239,1.4237,1.4245,1.4246,1.4249,1.4251,1.4253,1.4261,1.4263,1.4269,1.4269,1.4273,1.4276,1.4281,1.4288,1.4292,1.4295,1.4291,1.4296,1.4294,1.4296,1.4296,1.4296,1.429,1.429,1.4289,1.4289,0,1.4223,1.4227,1.4229,1.4233,1.4235,1.4239,1.4243,1.4243,1.4253,1.4255,1.4258,1.4261,1.4267,1.4271,1.4277,1.4281,1.4287,1.4288,1.4288,1.4285,1.4283,1.4285,1.4298,1.4288,1.4288,1.4288,1.4288,1.4288,1.4211,1.4211,1.4216,1.4219,1.4223,1.4227,1.4228,1.4234,1.4237,1.4242,1.4247,1.4251,1.4257,1.4266,1.427,1.4273,1.4276,1.4276,1.4276,1.4275,1.4275,1.4283,1.4274,1.4274,1.4275,1.4275,1.4275,0,1.4196,1.42,1.4203,1.4209,1.4212,1.4217,1.4223,1.4225,1.4227,1.4233,1.4237,1.4242,1.4246,1.4254,1.426,1.4261,1.4264,1.4263,1.4263,1.4264,1.4271,1.4271,1.426,1.426,1.426,1.426,1.426,1.426,1.4188,1.4189,1.4194,1.4197,1.4202,1.4205,1.4208,1.4212,1.4217,1.4222,1.4226,1.4231,1.4238,1.4244,1.425,1.4252,1.4254,1.4251,1.4254,1.4262,1.4263,1.4264,1.4264,1.4252,1.4251,1.4246,1.4246,1.4246]}]]